DW1039 Weather Reports


Display with metric or nautical units.
time (UTC)temp
F
wind
direction
speed
MPH
gust
MPH
rain 1hr
in
rain 24hr
in
rain mn
in
humidity
%
barometer
mb
20180117194205 21 217 2.0 5.0 0.01 0.01 0.01 70 1033.5
20180117193704 22 242 3.0 7.0 0.01 0.01 0.01 69 1033.7
20180117193204 22 273 3.0 8.0 0.01 0.01 0.01 70 1033.6
20180117192704 22 221 3.0 8.0 0.01 0.01 0.01 70 1033.7
20180117192204 22 257 0.0 9.0 0.01 0.01 0.01 71 1033.7
20180117191704 22 270 0.0 9.0 0.01 0.01 0.01 72 1033.7
20180117191234 21 261 6.0 9.0 0.01 0.01 0.01 72 1033.7
20180117190704 21 263 4.0 9.0 0.01 0.01 0.01 72 1033.8
20180117190251 21 261 6.0 9.0 0.00 0.00 0.00 72 1033.8
20180117185703 20 284 4.0 12.0 0.00 0.00 0.00 72 1033.9
20180117185203 20 258 4.0 12.0 0.00 0.00 0.00 73 1034.0
20180117184720 20 260 4.0 12.0 0.00 0.00 0.00 71 1034.0
20180117184250 20 266 2.0 8.0 0.00 0.00 0.00 73 1034.0
20180117183733 20 261 4.0 9.0 0.00 0.01 0.00 73 1034.0
20180117183233 20 254 3.0 11.0 0.00 0.01 0.00 72 1034.1
20180117182733 20 261 5.0 11.0 0.00 0.01 0.00 73 1034.1
20180117182233 20 248 2.0 11.0 0.00 0.01 0.00 73 1034.2
20180117181732 20 273 5.0 11.0 0.00 0.01 0.00 75 1034.3
20180117181232 19 271 9.0 10.0 0.00 0.01 0.00 75 1034.4
20180117180749 19 291 0.0 9.0 0.00 0.01 0.00 75 1034.6
20180117180249 18 261 2.0 9.0 0.00 0.01 0.00 75 1034.6
20180117175231 18 254 4.0 10.0 0.00 0.01 0.00 77 1034.7
20180117174231 18 270 4.0 11.0 0.00 0.01 0.00 78 1034.9
20180117173731 17 277 4.0 11.0 0.00 0.01 0.00 78 1034.8
20180117173233 17 246 6.0 11.0 0.00 0.01 0.00 78 1034.8
20180117172731 16 287 0.0 12.0 0.00 0.01 0.00 79 1035.0
20180117172230 16 253 6.0 12.0 0.00 0.01 0.00 79 1035.0
20180117171731 16 247 6.0 7.0 0.00 0.01 0.00 79 1035.1
20180117171231 16 249 2.0 7.0 0.00 0.01 0.00 79 1035.2
20180117170730 15 360 5.0 10.0 0.00 0.01 0.00 80 1035.2
20180117170230 15 250 4.0 10.0 0.00 0.01 0.00 80 1035.2
20180117165230 15 251 2.0 7.0 0.00 0.01 0.00 81 1035.4
20180117164730 14 248 3.0 6.0 0.00 0.01 0.00 81 1035.4
20180117164229 14 248 2.0 6.0 0.00 0.01 0.00 81 1035.4
20180117163729 14 250 0.0 5.0 0.00 0.01 0.00 82 1035.5
20180117163229 14 248 4.0 5.0 0.00 0.01 0.00 82 1035.5
20180117162729 14 250 0.0 5.0 0.00 0.01 0.00 83 1035.5
20180117162229 13 250 0.0 5.0 0.00 0.01 0.00 83 1035.4
20180117161729 13 248 2.0 5.0 0.00 0.01 0.00 83 1035.4
20180117161230 13 250 1.0 4.0 0.00 0.01 0.00 83 1035.4
20180117160729 13 246 0.0 5.0 0.00 0.01 0.00 83 1035.4
20180117160228 13 254 0.0 5.0 0.00 0.01 0.00 84 1035.5
20180117155729 12 252 0.0 7.0 0.00 0.01 0.00 84 1035.4
20180117155228 12 360 2.0 7.0 0.00 0.01 0.00 84 1035.5
20180117154729 12 253 3.0 7.0 0.00 0.01 0.00 84 1035.5
20180117154228 12 256 0.0 9.0 0.00 0.01 0.00 84 1035.5
20180117153227 12 251 5.0 9.0 0.00 0.01 0.00 85 1035.4
20180117152728 12 360 1.0 6.0 0.00 0.01 0.00 85 1035.3
20180117152228 11 258 2.0 6.0 0.00 0.01 0.00 85 1035.3
20180117151227 11 263 0.0 6.0 0.00 0.01 0.00 85 1035.3
20180117150727 11 257 0.0 6.0 0.00 0.01 0.00 85 1035.3
20180117150227 11 260 0.0 10.0 0.00 0.01 0.00 86 1035.3
20180117145727 10 261 2.0 10.0 0.00 0.01 0.00 86 1035.3
20180117145226 10 264 10.0 10.0 0.00 0.01 0.00 86 1035.2
20180117144726 10 269 4.0 6.0 0.00 0.01 0.00 86 1035.2
20180117144226 10 267 0.0 5.0 0.00 0.01 0.00 86 1035.1
20180117142726 10 269 1.0 11.0 0.00 0.01 0.00 86 1035.1
20180117142225 10 256 4.0 9.0 0.00 0.01 0.00 86 1035.1
20180117141726 10 256 4.0 9.0 0.00 0.01 0.00 86 1035.0
20180117141225 10 258 5.0 9.0 0.00 0.01 0.00 86 1035.0
20180117140225 10 259 4.0 7.0 0.00 0.01 0.00 86 1034.8
20180117135725 10 260 6.0 7.0 0.00 0.01 0.00 86 1034.8
20180117134724 10 258 2.0 6.0 0.00 0.01 0.00 86 1034.7
20180117134224 10 259 3.0 6.0 0.00 0.01 0.00 86 1034.8
20180117133224 10 261 2.0 7.0 0.00 0.01 0.00 86 1034.6
20180117132724 10 261 2.0 8.0 0.00 0.01 0.00 86 1034.7
20180117131723 10 260 6.0 8.0 0.00 0.01 0.00 86 1034.5
20180117131223 10 258 4.0 8.0 0.00 0.01 0.00 86 1034.6
20180117130723 10 260 6.0 6.0 0.00 0.01 0.00 86 1034.6
20180117125723 10 259 6.0 6.0 0.00 0.01 0.00 86 1034.6
20180117125223 10 256 1.0 6.0 0.00 0.01 0.00 86 1034.7
20180117123722 9 256 0.0 6.0 0.00 0.01 0.00 86 1034.6
20180117123222 9 257 0.0 6.0 0.00 0.01 0.00 86 1034.7
20180117122727 9 257 0.0 5.0 0.00 0.01 0.00 85 1034.7
20180117122222 9 257 0.0 3.0 0.00 0.01 0.00 85 1034.6
20180117121722 9 258 0.0 4.0 0.00 0.01 0.00 85 1034.7
20180117121222 9 258 1.0 4.0 0.00 0.01 0.00 85 1034.6
20180117120721 9 260 1.0 4.0 0.00 0.01 0.00 85 1034.6
20180117115721 9 254 0.0 5.0 0.00 0.01 0.00 85 1034.6
20180117115221 9 259 0.0 5.0 0.00 0.01 0.00 85 1034.7
20180117114721 9 258 0.0 4.0 0.00 0.01 0.00 85 1034.7
20180117114221 9 258 0.0 4.0 0.00 0.01 0.00 85 1034.7
20180117113721 9 259 1.0 4.0 0.00 0.01 0.00 85 1034.6
20180117113221 9 257 1.0 4.0 0.00 0.01 0.00 85 1034.5
20180117112720 9 259 0.0 5.0 0.00 0.01 0.00 85 1034.6
20180117112220 9 261 0.0 5.0 0.00 0.01 0.00 85 1034.6
20180117111220 9 257 2.0 5.0 0.00 0.01 0.00 85 1034.6
20180117110720 9 257 0.0 7.0 0.00 0.01 0.00 85 1034.6
20180117110220 9 259 5.0 7.0 0.00 0.01 0.00 85 1034.6
20180117105719 9 259 3.0 7.0 0.00 0.01 0.00 85 1034.6
20180117105219 9 259 0.0 6.0 0.00 0.01 0.00 85 1034.5
20180117104719 9 256 0.0 5.0 0.00 0.01 0.00 85 1034.5
20180117103719 9 360 1.0 9.0 0.00 0.01 0.00 85 1034.6
20180117103219 9 258 3.0 9.0 0.00 0.01 0.00 85 1034.5
20180117102719 9 257 1.0 5.0 0.00 0.01 0.00 85 1034.4
20180117102218 9 256 4.0 5.0 0.00 0.01 0.00 85 1034.4
20180117101719 8 261 2.0 6.0 0.00 0.01 0.00 85 1034.4
20180117101218 8 257 0.0 6.0 0.00 0.01 0.00 85 1034.4
20180117100718 8 259 0.0 6.0 0.00 0.01 0.00 85 1034.4
20180117100218 8 259 0.0 5.0 0.00 0.01 0.00 84 1034.4
20180117095718 8 257 0.0 4.0 0.00 0.01 0.00 84 1034.4
20180117095218 8 257 3.0 4.0 0.00 0.01 0.00 84 1034.4
20180117094718 8 259 1.0 4.0 0.00 0.01 0.00 84 1034.4
20180117094222 8 257 2.0 4.0 0.00 0.01 0.00 84 1034.3
20180117093717 8 259 2.0 4.0 0.00 0.01 0.00 84 1034.3
20180117093217 8 258 0.0 4.0 0.00 0.01 0.00 84 1034.3
20180117092717 8 257 0.0 4.0 0.00 0.01 0.00 84 1034.3
20180117092217 8 257 0.0 4.0 0.00 0.01 0.00 84 1034.3
20180117091216 8 257 0.0 6.0 0.00 0.01 0.00 84 1034.3
20180117090716 8 260 3.0 6.0 0.00 0.01 0.00 84 1034.4
20180117090216 8 259 5.0 6.0 0.00 0.01 0.00 84 1034.4
20180117085716 8 257 0.0 5.0 0.00 0.01 0.00 84 1034.3
20180117085216 8 257 0.0 5.0 0.00 0.01 0.00 84 1034.4
20180117084716 8 257 0.0 5.0 0.00 0.01 0.00 84 1034.4
20180117084217 8 260 0.0 4.0 0.00 0.01 0.00 84 1034.3
20180117083716 8 256 0.0 4.0 0.00 0.01 0.00 84 1034.5
20180117082215 8 256 0.0 4.0 0.00 0.01 0.00 84 1034.6
20180117081715 8 257 0.0 4.0 0.00 0.01 0.00 84 1034.4
20180117081215 8 258 2.0 4.0 0.00 0.01 0.00 84 1034.5
20180117080715 8 259 0.0 4.0 0.00 0.01 0.00 84 1034.4
20180117080215 8 257 2.0 4.0 0.00 0.01 0.00 84 1034.4
20180117075714 8 257 2.0 5.0 0.00 0.01 0.00 84 1034.3
20180117075214 8 258 0.0 6.0 0.00 0.01 0.00 84 1034.4
20180117074714 8 256 2.0 6.0 0.00 0.01 0.00 84 1034.3
20180117073714 8 254 4.0 6.0 0.00 0.01 0.00 84 1034.3
20180117072714 8 257 3.0 6.0 0.00 0.01 0.00 83 1034.1
20180117072213 8 258 4.0 6.0 0.00 0.01 0.00 83 1034.2
20180117071713 8 258 2.0 6.0 0.00 0.01 0.00 83 1034.2
20180117071213 8 259 1.0 6.0 0.00 0.01 0.00 83 1034.2
20180117070213 8 258 0.0 6.0 0.00 0.01 0.00 83 1034.3
20180117065713 8 259 2.0 6.0 0.00 0.01 0.00 83 1034.2
20180117065213 8 258 3.0 5.0 0.00 0.01 0.00 83 1034.3
20180117064712 8 259 0.0 4.0 0.00 0.01 0.00 83 1034.4
20180117064212 8 258 0.0 4.0 0.00 0.01 0.00 83 1034.4
20180117063212 8 259 0.0 4.0 0.00 0.01 0.00 82 1034.1
20180117062211 8 259 3.0 4.0 0.00 0.01 0.00 82 1034.3
20180117061712 8 257 2.0 5.0 0.00 0.01 0.00 82 1034.3
20180117061211 8 259 0.0 6.0 0.00 0.01 0.00 82 1034.3
20180117060711 8 259 0.0 6.0 0.00 0.01 0.00 82 1034.4
20180117055710 8 257 2.0 5.0 0.00 0.01 0.00 82 1034.4
20180117055210 8 258 2.0 6.0 0.00 0.01 0.00 82 1034.4
20180117054710 8 259 1.0 6.0 0.00 0.01 0.00 82 1034.5
20180117054210 8 257 0.0 6.0 0.00 0.01 0.00 82 1034.5
20180117053710 8 259 0.0 6.0 0.00 0.01 0.00 82 1034.6
20180117053210 8 258 2.0 6.0 0.00 0.01 0.00 82 1034.6
20180117052710 8 257 0.0 6.0 0.00 0.01 0.00 82 1034.7
20180117052209 8 259 0.0 8.0 0.00 0.01 0.00 82 1034.7
20180117051709 8 257 4.0 9.0 0.00 0.01 0.00 82 1034.7
20180117051209 8 258 3.0 9.0 0.00 0.01 0.00 81 1034.7
20180117050710 8 258 5.0 9.0 0.00 0.01 0.00 81 1034.7
20180117050239 8 257 2.0 7.0 0.00 0.01 0.00 81 1034.8
20180117045709 8 257 4.0 7.0 0.00 0.01 0.01 81 1034.8
20180117044709 8 259 4.0 7.0 0.00 0.01 0.01 81 1034.9
20180117043708 8 257 6.0 6.0 0.00 0.01 0.01 81 1034.9
20180117043208 8 257 5.0 7.0 0.00 0.01 0.01 81 1034.8
20180117042708 8 257 2.0 7.0 0.00 0.01 0.01 81 1034.8
20180117042208 8 259 4.0 9.0 0.00 0.01 0.01 81 1034.8
20180117041208 8 258 5.0 9.0 0.00 0.01 0.01 81 1034.9
20180117040707 8 257 4.0 7.0 0.00 0.01 0.01 80 1034.9
20180117040208 8 257 2.0 7.0 0.00 0.01 0.01 80 1034.9
20180117035707 8 258 2.0 7.0 0.00 0.01 0.01 80 1034.8
20180117035207 8 259 0.0 10.0 0.00 0.01 0.01 80 1034.8
20180117034707 8 259 2.0 10.0 0.00 0.01 0.01 80 1034.9
20180117034207 8 259 6.0 10.0 0.00 0.01 0.01 80 1034.9
20180117033706 8 258 1.0 10.0 0.00 0.01 0.01 80 1034.9
20180117032706 9 257 4.0 9.0 0.00 0.01 0.01 80 1034.8
20180117032206 9 257 2.0 6.0 0.00 0.01 0.01 80 1034.7
20180117031736 9 259 0.0 7.0 0.00 0.01 0.01 80 1034.6
20180117030736 9 259 2.0 7.0 0.00 0.01 0.01 80 1034.7
20180117030235 9 257 3.0 7.0 0.00 0.01 0.01 80 1034.6
20180117025735 9 259 6.0 7.0 0.00 0.01 0.01 80 1034.7
20180117025235 9 257 1.0 7.0 0.00 0.01 0.01 79 1034.7
20180117024735 9 259 1.0 9.0 0.00 0.01 0.01 79 1034.7
20180117024205 9 257 3.0 10.0 0.00 0.01 0.01 79 1034.5
20180117022735 9 260 3.0 7.0 0.00 0.01 0.01 79 1034.4
20180117022234 9 259 2.0 10.0 0.00 0.01 0.01 79 1034.4
20180117021734 9 259 5.0 10.0 0.00 0.01 0.01 79 1034.4
20180117021234 9 259 7.0 10.0 0.00 0.01 0.01 79 1034.3
20180117020734 9 263 5.0 10.0 0.00 0.01 0.01 79 1034.2
20180117020234 9 265 2.0 10.0 0.00 0.01 0.01 79 1034.3
20180117015734 9 360 1.0 10.0 0.00 0.01 0.01 79 1034.2
20180117014233 9 271 4.0 11.0 0.00 0.01 0.01 79 1034.4
20180117013733 9 264 6.0 10.0 0.00 0.01 0.01 79 1034.3
20180117013233 9 262 3.0 10.0 0.00 0.01 0.01 78 1034.2
20180117012733 9 263 7.0 10.0 0.00 0.01 0.01 78 1034.1
20180117011732 9 263 2.0 9.0 0.00 0.01 0.01 78 1034.0
20180117011232 9 263 3.0 9.0 0.00 0.01 0.01 78 1034.1
20180117010732 9 262 5.0 10.0 0.00 0.01 0.01 78 1034.1
20180117010232 9 263 6.0 10.0 0.00 0.01 0.01 78 1034.0
20180117005232 9 263 2.0 9.0 0.00 0.01 0.01 78 1034.1
20180117004232 9 263 5.0 7.0 0.00 0.01 0.01 78 1033.9
20180117003731 9 261 3.0 7.0 0.00 0.01 0.01 78 1033.9
20180117003231 9 262 3.0 6.0 0.00 0.01 0.01 78 1033.9
20180117002731 9 261 0.0 10.0 0.00 0.01 0.01 78 1033.9
20180117002231 9 262 2.0 10.0 0.00 0.01 0.01 77 1033.8
20180117001731 9 263 3.0 11.0 0.00 0.01 0.01 77 1033.8
20180117001230 9 263 4.0 11.0 0.00 0.01 0.01 77 1033.8
20180117000731 9 263 4.0 9.0 0.00 0.01 0.01 77 1033.6
20180117000231 9 263 5.0 9.0 0.00 0.01 0.01 77 1033.6
20180116235730 9 263 5.0 10.0 0.00 0.01 0.01 77 1033.6
20180116235230 9 264 5.0 10.0 0.00 0.01 0.01 77 1033.6
20180116234730 9 261 6.0 10.0 0.00 0.01 0.01 76 1033.6
20180116234231 9 263 5.0 10.0 0.00 0.01 0.01 76 1033.5
20180116233730 9 261 2.0 9.0 0.00 0.01 0.01 76 1033.4
20180116233229 10 263 7.0 10.0 0.00 0.01 0.01 76 1033.4
20180116232729 10 263 3.0 10.0 0.00 0.01 0.01 76 1033.4
20180116232230 10 263 6.0 10.0 0.00 0.01 0.01 76 1033.4
20180116231729 10 263 2.0 10.0 0.00 0.01 0.01 76 1033.3
20180116231229 10 263 8.0 10.0 0.00 0.01 0.01 76 1033.3
20180116230729 10 263 5.0 10.0 0.00 0.01 0.01 76 1033.4
20180116230229 10 263 5.0 10.0 0.00 0.01 0.01 75 1033.3
20180116225728 10 263 3.0 9.0 0.00 0.01 0.01 75 1033.3
20180116225228 10 263 5.0 9.0 0.00 0.01 0.01 75 1033.2
20180116224728 10 360 3.0 10.0 0.00 0.01 0.01 75 1033.2
20180116224228 10 264 3.0 10.0 0.00 0.01 0.01 75 1033.2
20180116223728 10 263 6.0 10.0 0.00 0.01 0.01 75 1033.1
20180116223227 10 262 6.0 10.0 0.00 0.01 0.01 74 1033.0
20180116222728 10 264 5.0 10.0 0.00 0.01 0.01 74 1033.1
20180116222227 10 263 5.0 8.0 0.00 0.01 0.01 73 1033.1
20180116221727 10 265 2.0 7.0 0.00 0.01 0.01 73 1033.0
20180116221227 10 263 6.0 8.0 0.00 0.01 0.01 73 1033.0
20180116220727 10 265 3.0 9.0 0.00 0.01 0.01 73 1032.9
20180116220227 10 263 2.0 9.0 0.00 0.01 0.01 72 1032.9
20180116215727 10 262 5.0 9.0 0.00 0.01 0.01 72 1032.9
20180116215226 10 264 3.0 6.0 0.00 0.01 0.01 72 1032.8
20180116214726 11 263 3.0 8.0 0.00 0.01 0.01 72 1032.9
20180116214227 11 264 0.0 8.0 0.00 0.01 0.01 71 1032.9
20180116213727 11 263 3.0 8.0 0.00 0.01 0.01 71 1032.7
20180116213227 11 264 2.0 9.0 0.00 0.01 0.01 71 1032.7
20180116212725 11 263 2.0 9.0 0.00 0.01 0.01 71 1032.7
20180116212226 12 263 6.0 9.0 0.00 0.01 0.01 70 1032.6
20180116211726 12 263 3.0 6.0 0.00 0.01 0.01 70 1032.5
20180116211225 12 262 1.0 7.0 0.00 0.01 0.01 70 1032.5
20180116210725 12 263 5.0 7.0 0.00 0.01 0.01 70 1032.5
20180116210225 12 261 4.0 7.0 0.00 0.01 0.01 70 1032.5
20180116205725 12 263 2.0 6.0 0.00 0.01 0.01 70 1032.4
20180116205225 12 263 5.0 6.0 0.00 0.01 0.01 69 1032.4
20180116204725 13 264 0.0 8.0 0.00 0.01 0.01 70 1032.4
20180116204224 12 263 3.0 8.0 0.00 0.01 0.01 71 1032.4
20180116203724 12 262 3.0 7.0 0.00 0.01 0.01 71 1032.3
20180116203225 12 263 0.0 6.0 0.00 0.01 0.01 70 1032.3
20180116202725 12 263 2.0 7.0 0.00 0.01 0.01 71 1032.2
20180116202224 12 263 1.0 8.0 0.00 0.01 0.01 71 1032.1
20180116201724 12 263 5.0 8.0 0.00 0.01 0.01 71 1032.1
20180116201224 12 263 2.0 8.0 0.00 0.01 0.01 71 1032.2
20180116200723 12 263 0.0 6.0 0.00 0.01 0.01 70 1032.0
20180116200223 12 264 2.0 7.0 0.00 0.01 0.01 70 1032.0
20180116195723 12 265 4.0 7.0 0.00 0.01 0.01 69 1032.0
20180116195223 12 263 3.0 10.0 0.00 0.01 0.01 69 1032.2
20180116194723 13 263 3.0 10.0 0.00 0.01 0.01 69 1032.2